View from above orbital plane
|
View from above satellite
|
Ground track
|
The orbit data is extracted from the following two-line orbital elements,
1 15453U 84129A 21015.60100383 -.00000156 00000-0 00000-0 0 9995
2 15453 14.5889 337.4723 0001905 26.0838 337.9199 0.98858071 6492
Epoch (UTC): | 15 January 2021 14:25:26 |
Eccentricity: | 0.0001905 |
inclination: | 14.5889° |
perigee height: | 36179 km |
apogee height: | 36195 km |
right ascension of ascending node: | 337.4723° |
argument of perigee: | 26.0838° |
revolutions per day: | 0.98858071 |
mean anomaly at epoch: | 337.9199° |
orbit number at epoch: | 649 |
The dashed part of the orbit path shows where the satellite is in the earth's shadow,
|
|